Year,Month,Day,Hour,Minute,Value (Times are PST for temperature in C)
2017,09,15,00,00,12.30
2017,09,15,00,01,12.30
2017,09,15,00,02,12.20
2017,09,15,00,03,12.20
2017,09,15,00,04,12.10
2017,09,15,00,05,12.10
2017,09,15,00,06,12.10
2017,09,15,00,07,12.10
2017,09,15,00,08,12.00
2017,09,15,00,09,12.00
2017,09,15,00,10,12.00
2017,09,15,00,11,12.00
2017,09,15,00,12,12.00
2017,09,15,00,13,12.00
2017,09,15,00,14,12.00
2017,09,15,00,15,12.00
2017,09,15,00,16,12.00
2017,09,15,00,17,12.00
2017,09,15,00,18,12.00
2017,09,15,00,19,12.10
2017,09,15,00,20,12.10
2017,09,15,00,21,12.20
2017,09,15,00,22,12.20
2017,09,15,00,23,12.20
2017,09,15,00,24,12.20
2017,09,15,00,25,12.20
2017,09,15,00,26,12.30
2017,09,15,00,27,12.20
2017,09,15,00,28,12.20
2017,09,15,00,29,12.20
2017,09,15,00,30,12.20
2017,09,15,00,31,12.20
2017,09,15,00,32,12.10
2017,09,15,00,33,12.10
2017,09,15,00,34,12.00
2017,09,15,00,35,11.90
2017,09,15,00,36,11.80
2017,09,15,00,37,11.80
2017,09,15,00,38,11.70
2017,09,15,00,39,11.70
2017,09,15,00,40,11.60
2017,09,15,00,41,11.60
2017,09,15,00,42,11.60
2017,09,15,00,43,11.60
2017,09,15,00,44,11.70
2017,09,15,00,45,11.70
2017,09,15,00,46,11.70
2017,09,15,00,47,11.60
2017,09,15,00,48,11.60
2017,09,15,00,49,11.60
2017,09,15,00,50,11.60
2017,09,15,00,51,11.60
2017,09,15,00,52,11.60
2017,09,15,00,53,11.60
2017,09,15,00,54,11.70
2017,09,15,00,55,11.70
2017,09,15,00,56,11.70
2017,09,15,00,57,11.60
2017,09,15,00,58,11.60
2017,09,15,00,59,11.60
2017,09,15,01,00,11.60
2017,09,15,01,01,11.60
2017,09,15,01,02,11.50
2017,09,15,01,03,11.50
2017,09,15,01,04,11.50
2017,09,15,01,05,11.40
2017,09,15,01,06,11.40
2017,09,15,01,07,11.40
2017,09,15,01,08,11.40
2017,09,15,01,09,11.40
2017,09,15,01,10,11.30
2017,09,15,01,11,11.30
2017,09,15,01,12,11.30
2017,09,15,01,13,11.20
2017,09,15,01,14,11.20
2017,09,15,01,15,11.20
2017,09,15,01,16,11.20
2017,09,15,01,17,11.20
2017,09,15,01,18,11.10
2017,09,15,01,19,11.10
2017,09,15,01,20,11.10
2017,09,15,01,21,11.00
2017,09,15,01,22,11.00
2017,09,15,01,23,10.90
2017,09,15,01,24,10.90
2017,09,15,01,25,10.90
2017,09,15,01,26,10.80
2017,09,15,01,27,10.70
2017,09,15,01,28,10.60
2017,09,15,01,29,10.60
2017,09,15,01,30,10.60
2017,09,15,01,31,10.60
2017,09,15,01,32,10.50
2017,09,15,01,33,10.50
2017,09,15,01,34,10.50
2017,09,15,01,35,10.40
2017,09,15,01,36,10.50
2017,09,15,01,37,10.50
2017,09,15,01,38,10.60
2017,09,15,01,39,10.70
2017,09,15,01,40,10.80
2017,09,15,01,41,10.90
2017,09,15,01,42,10.90
2017,09,15,01,43,11.00
2017,09,15,01,44,11.00
2017,09,15,01,45,11.00
2017,09,15,01,46,11.00
2017,09,15,01,47,11.10
2017,09,15,01,48,11.10
2017,09,15,01,49,11.20
2017,09,15,01,50,11.20
2017,09,15,01,51,11.20
2017,09,15,01,52,11.30
2017,09,15,01,53,11.30
2017,09,15,01,54,11.30
2017,09,15,01,55,11.30
2017,09,15,01,56,11.30
2017,09,15,01,57,11.20
2017,09,15,01,58,11.30
2017,09,15,01,59,11.30
2017,09,15,02,00,11.40
2017,09,15,02,01,11.40
2017,09,15,02,02,11.40
2017,09,15,02,03,11.30
2017,09,15,02,04,11.30
2017,09,15,02,05,11.20
2017,09,15,02,06,11.20
2017,09,15,02,07,11.10
2017,09,15,02,08,11.10
2017,09,15,02,09,11.00
2017,09,15,02,10,10.90
2017,09,15,02,11,10.80
2017,09,15,02,12,10.70
2017,09,15,02,13,10.70
2017,09,15,02,14,10.60
2017,09,15,02,15,10.50
2017,09,15,02,16,10.40
2017,09,15,02,17,10.40
2017,09,15,02,18,10.30
2017,09,15,02,19,10.30
2017,09,15,02,20,10.30
2017,09,15,02,21,10.30
2017,09,15,02,22,10.20
2017,09,15,02,23,10.20
2017,09,15,02,24,10.20
2017,09,15,02,25,10.20
2017,09,15,02,26,10.10
2017,09,15,02,27,10.10
2017,09,15,02,28,10.10
2017,09,15,02,29,10.10
2017,09,15,02,30,10.10
2017,09,15,02,31,10.00
2017,09,15,02,32,10.00
2017,09,15,02,33,10.00
2017,09,15,02,34,10.00
2017,09,15,02,35,9.90
2017,09,15,02,36,9.90
2017,09,15,02,37,9.90
2017,09,15,02,38,9.90
2017,09,15,02,39,9.90
2017,09,15,02,40,9.80
2017,09,15,02,41,9.80
2017,09,15,02,42,9.80
2017,09,15,02,43,9.80
2017,09,15,02,44,9.80
2017,09,15,02,45,9.80
2017,09,15,02,46,9.80
2017,09,15,02,47,9.70
2017,09,15,02,48,9.60
2017,09,15,02,49,9.50
2017,09,15,02,50,9.50
2017,09,15,02,51,9.50
2017,09,15,02,52,9.40
2017,09,15,02,53,9.40
2017,09,15,02,54,9.40
2017,09,15,02,55,9.30
2017,09,15,02,56,9.30
2017,09,15,02,57,9.40
2017,09,15,02,58,9.50
2017,09,15,02,59,9.50
2017,09,15,03,00,9.60
2017,09,15,03,01,9.70
2017,09,15,03,02,9.70
2017,09,15,03,03,9.70
2017,09,15,03,04,9.70
2017,09,15,03,05,9.70
2017,09,15,03,06,9.80
2017,09,15,03,07,9.80
2017,09,15,03,08,9.80
2017,09,15,03,09,9.80
2017,09,15,03,10,9.80
2017,09,15,03,11,9.80
2017,09,15,03,12,9.80
2017,09,15,03,13,9.80
2017,09,15,03,14,9.70
2017,09,15,03,15,9.70
2017,09,15,03,16,9.70
2017,09,15,03,17,9.70
2017,09,15,03,18,9.70
2017,09,15,03,19,9.70
2017,09,15,03,20,9.70
2017,09,15,03,21,9.70
2017,09,15,03,22,9.70
2017,09,15,03,23,9.70
2017,09,15,03,24,9.70
2017,09,15,03,25,9.70
2017,09,15,03,26,9.70
2017,09,15,03,27,9.70
2017,09,15,03,28,9.70
2017,09,15,03,29,9.70
2017,09,15,03,30,9.70
2017,09,15,03,31,9.60
2017,09,15,03,32,9.60
2017,09,15,03,33,9.50
2017,09,15,03,34,9.50
2017,09,15,03,35,9.50
2017,09,15,03,36,9.50
2017,09,15,03,37,9.50
2017,09,15,03,38,9.50
2017,09,15,03,39,9.50
2017,09,15,03,40,9.50
2017,09,15,03,41,9.50
2017,09,15,03,42,9.50
2017,09,15,03,43,9.50
2017,09,15,03,44,9.60
2017,09,15,03,45,9.60
2017,09,15,03,46,9.60
2017,09,15,03,47,9.60
2017,09,15,03,48,9.60
2017,09,15,03,49,9.60
2017,09,15,03,50,9.60
2017,09,15,03,51,9.50
2017,09,15,03,52,9.50
2017,09,15,03,53,9.50
2017,09,15,03,54,9.50
2017,09,15,03,55,9.50
2017,09,15,03,56,9.50
2017,09,15,03,57,9.40
2017,09,15,03,58,9.40
2017,09,15,03,59,9.40
2017,09,15,04,00,9.40
2017,09,15,04,01,9.40
2017,09,15,04,02,9.30
2017,09,15,04,03,9.30
2017,09,15,04,04,9.30
2017,09,15,04,05,9.30
2017,09,15,04,06,9.30
2017,09,15,04,07,9.30
2017,09,15,04,08,9.40
2017,09,15,04,09,9.40
2017,09,15,04,10,9.50
2017,09,15,04,11,9.60
2017,09,15,04,12,9.70
2017,09,15,04,13,9.70
2017,09,15,04,14,9.80
2017,09,15,04,15,9.80
2017,09,15,04,16,9.80
2017,09,15,04,17,9.80
2017,09,15,04,18,9.80
2017,09,15,04,19,9.80
2017,09,15,04,20,9.80
2017,09,15,04,21,9.80
2017,09,15,04,22,9.70
2017,09,15,04,23,9.70
2017,09,15,04,24,9.70
2017,09,15,04,25,9.70
2017,09,15,04,26,9.60
2017,09,15,04,27,9.60
2017,09,15,04,28,9.60
2017,09,15,04,29,9.60
2017,09,15,04,30,9.60
2017,09,15,04,31,9.60
2017,09,15,04,32,9.60
2017,09,15,04,33,9.60
2017,09,15,04,34,9.60
2017,09,15,04,35,9.60
2017,09,15,04,36,9.50
2017,09,15,04,37,9.60
2017,09,15,04,38,9.60
2017,09,15,04,39,9.50
2017,09,15,04,40,9.50
2017,09,15,04,41,9.50
2017,09,15,04,42,9.50
2017,09,15,04,43,9.50
2017,09,15,04,44,9.50
2017,09,15,04,45,9.40
2017,09,15,04,46,9.40
2017,09,15,04,47,9.50
2017,09,15,04,48,9.50
2017,09,15,04,49,9.50
2017,09,15,04,50,9.50
2017,09,15,04,51,9.50
2017,09,15,04,52,9.50
2017,09,15,04,53,9.50
2017,09,15,04,54,9.60
2017,09,15,04,55,9.60
2017,09,15,04,56,9.60
2017,09,15,04,57,9.60
2017,09,15,04,58,9.60
2017,09,15,04,59,9.60
2017,09,15,05,00,9.50
2017,09,15,05,01,9.60
2017,09,15,05,02,9.60
2017,09,15,05,03,9.60
2017,09,15,05,04,9.60
2017,09,15,05,05,9.60
2017,09,15,05,06,9.60
2017,09,15,05,07,9.60
2017,09,15,05,08,9.60
2017,09,15,05,09,9.60
2017,09,15,05,10,9.60
2017,09,15,05,11,9.50
2017,09,15,05,12,9.50
2017,09,15,05,13,9.40
2017,09,15,05,14,9.40
2017,09,15,05,15,9.30
2017,09,15,05,16,9.30
2017,09,15,05,17,9.30
2017,09,15,05,18,9.30
2017,09,15,05,19,9.20
2017,09,15,05,20,9.20
2017,09,15,05,21,9.20
2017,09,15,05,22,9.20
2017,09,15,05,23,9.20
2017,09,15,05,24,9.20
2017,09,15,05,25,9.20
2017,09,15,05,26,9.20
2017,09,15,05,27,9.30
2017,09,15,05,28,9.30
2017,09,15,05,29,9.30
2017,09,15,05,30,9.30
2017,09,15,05,31,9.30
2017,09,15,05,32,9.20
2017,09,15,05,33,9.20
2017,09,15,05,34,9.20
2017,09,15,05,35,9.20
2017,09,15,05,36,9.20
2017,09,15,05,37,9.20
2017,09,15,05,38,9.20
2017,09,15,05,39,9.20
2017,09,15,05,40,9.20
2017,09,15,05,41,9.30
2017,09,15,05,42,9.30
2017,09,15,05,43,9.30
2017,09,15,05,44,9.30
2017,09,15,05,45,9.20
2017,09,15,05,46,9.20
2017,09,15,05,47,9.20
2017,09,15,05,48,9.20
2017,09,15,05,49,9.10
2017,09,15,05,50,9.00
2017,09,15,05,51,9.00
2017,09,15,05,52,8.90
2017,09,15,05,53,8.90
2017,09,15,05,54,8.90
2017,09,15,05,55,9.00
2017,09,15,05,56,9.00
2017,09,15,05,57,9.00
2017,09,15,05,58,9.00
2017,09,15,05,59,9.00
2017,09,15,06,00,9.00
2017,09,15,06,01,9.00
2017,09,15,06,02,9.00
2017,09,15,06,03,8.90
2017,09,15,06,04,8.90
2017,09,15,06,05,8.90
2017,09,15,06,06,8.90
2017,09,15,06,07,8.90
2017,09,15,06,08,8.90
2017,09,15,06,09,8.90
2017,09,15,06,10,8.90
2017,09,15,06,11,8.90
2017,09,15,06,12,8.90
2017,09,15,06,13,8.90
2017,09,15,06,14,8.90
2017,09,15,06,15,8.90
2017,09,15,06,16,8.90
2017,09,15,06,17,8.90
2017,09,15,06,18,8.90
2017,09,15,06,19,8.90
2017,09,15,06,20,8.80
2017,09,15,06,21,8.80
2017,09,15,06,22,8.80
2017,09,15,06,23,8.80
2017,09,15,06,24,8.70
2017,09,15,06,25,8.70
2017,09,15,06,26,8.60
2017,09,15,06,27,8.60
2017,09,15,06,28,8.60
2017,09,15,06,29,8.50
2017,09,15,06,30,8.50
2017,09,15,06,31,8.50
2017,09,15,06,32,8.40
2017,09,15,06,33,8.40
2017,09,15,06,34,8.40
2017,09,15,06,35,8.40
2017,09,15,06,36,8.50
2017,09,15,06,37,8.50
2017,09,15,06,38,8.50
2017,09,15,06,39,8.50
2017,09,15,06,40,8.50
2017,09,15,06,41,8.50
2017,09,15,06,42,8.40
2017,09,15,06,43,8.40
2017,09,15,06,44,8.40
2017,09,15,06,45,8.40
2017,09,15,06,46,8.40
2017,09,15,06,47,8.30
2017,09,15,06,48,8.30
2017,09,15,06,49,8.20
2017,09,15,06,50,8.20
2017,09,15,06,51,8.20
2017,09,15,06,52,8.20
2017,09,15,06,53,8.20
2017,09,15,06,54,8.20
2017,09,15,06,55,8.20
2017,09,15,06,56,8.20
2017,09,15,06,57,8.20
2017,09,15,06,58,8.20
2017,09,15,06,59,8.20
2017,09,15,07,00,8.20
2017,09,15,07,01,8.20
2017,09,15,07,02,8.20
2017,09,15,07,03,8.20
2017,09,15,07,04,8.20
2017,09,15,07,05,8.20
2017,09,15,07,06,8.20
2017,09,15,07,07,8.20
2017,09,15,07,08,8.20
2017,09,15,07,09,8.20
2017,09,15,07,10,8.20
2017,09,15,07,11,8.30
2017,09,15,07,12,8.30
2017,09,15,07,13,8.30
2017,09,15,07,14,8.30
2017,09,15,07,15,8.30
2017,09,15,07,16,8.30
2017,09,15,07,17,8.30
2017,09,15,07,18,8.30
2017,09,15,07,19,8.40
2017,09,15,07,20,8.40
2017,09,15,07,21,8.40
2017,09,15,07,22,8.40
2017,09,15,07,23,8.50
2017,09,15,07,24,8.50
2017,09,15,07,25,8.50
2017,09,15,07,26,8.60
2017,09,15,07,27,8.60
2017,09,15,07,28,8.60
2017,09,15,07,29,8.70
2017,09,15,07,30,8.70
2017,09,15,07,31,8.70
2017,09,15,07,32,8.70
2017,09,15,07,33,8.80
2017,09,15,07,34,8.80
2017,09,15,07,35,8.80
2017,09,15,07,36,8.80
2017,09,15,07,37,8.90
2017,09,15,07,38,9.00
2017,09,15,07,39,9.00
2017,09,15,07,40,9.10
2017,09,15,07,41,9.10
2017,09,15,07,42,9.20
2017,09,15,07,43,9.20
2017,09,15,07,44,9.20
2017,09,15,07,45,9.30
2017,09,15,07,46,9.30
2017,09,15,07,47,9.30
2017,09,15,07,48,9.30
2017,09,15,07,49,9.30
2017,09,15,07,50,9.40
2017,09,15,07,51,9.40
2017,09,15,07,52,9.40
2017,09,15,07,53,9.50
2017,09,15,07,54,9.50
2017,09,15,07,55,9.50
2017,09,15,07,56,9.60
2017,09,15,07,57,9.60
2017,09,15,07,58,9.60
2017,09,15,07,59,9.70
2017,09,15,08,00,9.70
2017,09,15,08,01,9.70
2017,09,15,08,02,9.80
2017,09,15,08,03,9.80
2017,09,15,08,04,9.80
2017,09,15,08,05,9.90
2017,09,15,08,06,10.00
2017,09,15,08,07,10.10
2017,09,15,08,08,10.20
2017,09,15,08,09,10.30
2017,09,15,08,10,10.40
2017,09,15,08,11,10.60
2017,09,15,08,12,10.70
2017,09,15,08,13,10.80
2017,09,15,08,14,10.90
2017,09,15,08,15,11.00
2017,09,15,08,16,11.10
2017,09,15,08,17,11.10
2017,09,15,08,18,11.20
2017,09,15,08,19,11.30
2017,09,15,08,20,11.40
2017,09,15,08,21,11.50
2017,09,15,08,22,11.50
2017,09,15,08,23,11.60
2017,09,15,08,24,11.70
2017,09,15,08,25,11.80
2017,09,15,08,26,11.90
2017,09,15,08,27,12.00
2017,09,15,08,28,12.00
2017,09,15,08,29,12.10
2017,09,15,08,30,12.20
2017,09,15,08,31,12.30
2017,09,15,08,32,12.30
2017,09,15,08,33,12.40
2017,09,15,08,34,12.40
2017,09,15,08,35,12.40
2017,09,15,08,36,12.50
2017,09,15,08,37,12.50
2017,09,15,08,38,12.60
2017,09,15,08,39,12.60
2017,09,15,08,40,12.60
2017,09,15,08,41,12.70
2017,09,15,08,42,12.80
2017,09,15,08,43,12.90
2017,09,15,08,44,13.00
2017,09,15,08,45,13.20
2017,09,15,08,46,13.30
2017,09,15,08,47,13.40
2017,09,15,08,48,13.50
2017,09,15,08,49,13.60
2017,09,15,08,50,13.70
2017,09,15,08,51,13.70
2017,09,15,08,52,13.80
2017,09,15,08,53,13.90
2017,09,15,08,54,14.00
2017,09,15,08,55,14.10
2017,09,15,08,56,14.20
2017,09,15,08,57,14.30
2017,09,15,08,58,14.40
2017,09,15,08,59,14.40
2017,09,15,09,00,14.40
2017,09,15,09,01,14.50
2017,09,15,09,02,14.50
2017,09,15,09,03,14.50
2017,09,15,09,04,14.50
2017,09,15,09,05,14.50
2017,09,15,09,06,14.50
2017,09,15,09,07,14.50
2017,09,15,09,08,14.50
2017,09,15,09,09,14.50
2017,09,15,09,10,14.50
2017,09,15,09,11,14.60
2017,09,15,09,12,14.60
2017,09,15,09,13,14.70
2017,09,15,09,14,14.70
2017,09,15,09,15,14.80
2017,09,15,09,16,14.80
2017,09,15,09,17,14.90
2017,09,15,09,18,15.00
2017,09,15,09,19,15.00
2017,09,15,09,20,15.10
2017,09,15,09,21,15.10
2017,09,15,09,22,15.20
2017,09,15,09,23,15.20
2017,09,15,09,24,15.30
2017,09,15,09,25,15.40
2017,09,15,09,26,15.40
2017,09,15,09,27,15.50
2017,09,15,09,28,15.60
2017,09,15,09,29,15.80
2017,09,15,09,30,15.90
2017,09,15,09,31,16.10
2017,09,15,09,32,16.20
2017,09,15,09,33,16.30
2017,09,15,09,34,16.50
2017,09,15,09,35,16.60
2017,09,15,09,36,16.70
2017,09,15,09,37,16.90
2017,09,15,09,38,17.00
2017,09,15,09,39,17.20
2017,09,15,09,40,17.30
2017,09,15,09,41,17.50
2017,09,15,09,42,17.60
2017,09,15,09,43,17.70
2017,09,15,09,44,17.80
2017,09,15,09,45,17.90
2017,09,15,09,46,18.00
2017,09,15,09,47,18.10
2017,09,15,09,48,18.20
2017,09,15,09,49,18.20
2017,09,15,09,50,18.30
2017,09,15,09,51,18.30
2017,09,15,09,52,18.40
2017,09,15,09,53,18.50
2017,09,15,09,54,18.50
2017,09,15,09,55,18.60
2017,09,15,09,56,18.60
2017,09,15,09,57,18.60
2017,09,15,09,58,18.70
2017,09,15,09,59,18.70
2017,09,15,10,00,18.70
2017,09,15,10,01,18.70
2017,09,15,10,02,18.70
2017,09,15,10,03,18.80
2017,09,15,10,04,18.90
2017,09,15,10,05,18.90
2017,09,15,10,06,19.00
2017,09,15,10,07,19.10
2017,09,15,10,08,19.20
2017,09,15,10,09,19.20
2017,09,15,10,10,19.20
2017,09,15,10,11,19.20
2017,09,15,10,12,19.20
2017,09,15,10,13,19.30
2017,09,15,10,14,19.30
2017,09,15,10,15,19.30
2017,09,15,10,16,19.30
2017,09,15,10,17,19.30
2017,09,15,10,18,19.30
2017,09,15,10,19,19.30
2017,09,15,10,20,19.30
2017,09,15,10,21,19.40
2017,09,15,10,22,19.40
2017,09,15,10,23,19.50
2017,09,15,10,24,19.60
2017,09,15,10,25,19.60
2017,09,15,10,26,19.70
2017,09,15,10,27,19.80
2017,09,15,10,28,19.80
2017,09,15,10,29,19.80
2017,09,15,10,30,19.90
2017,09,15,10,31,19.90
2017,09,15,10,32,19.80
2017,09,15,10,33,19.80
2017,09,15,10,34,19.80
2017,09,15,10,35,19.80
2017,09,15,10,36,19.80
2017,09,15,10,37,19.90
2017,09,15,10,38,19.90
2017,09,15,10,39,20.00
2017,09,15,10,40,20.00
2017,09,15,10,41,20.10
2017,09,15,10,42,20.10
2017,09,15,10,43,20.20
2017,09,15,10,44,20.20
2017,09,15,10,45,20.10
2017,09,15,10,46,20.10
2017,09,15,10,47,20.10
2017,09,15,10,48,20.10
2017,09,15,10,49,20.10
2017,09,15,10,50,20.10
2017,09,15,10,51,20.20
2017,09,15,10,52,20.20
2017,09,15,10,53,20.20
2017,09,15,10,54,20.20
2017,09,15,10,55,20.20
2017,09,15,10,56,20.30
2017,09,15,10,57,20.40
2017,09,15,10,58,20.40
2017,09,15,10,59,20.40
2017,09,15,11,00,20.40
2017,09,15,11,01,20.50
2017,09,15,11,02,20.50
2017,09,15,11,03,20.50
2017,09,15,11,04,20.60
2017,09,15,11,05,20.60
2017,09,15,11,06,20.50
2017,09,15,11,07,20.50
2017,09,15,11,08,20.50
2017,09,15,11,09,20.40
2017,09,15,11,10,20.40
2017,09,15,11,11,20.40
2017,09,15,11,12,20.40
2017,09,15,11,13,20.50
2017,09,15,11,14,20.50
2017,09,15,11,15,20.60
2017,09,15,11,16,20.70
2017,09,15,11,17,20.50
2017,09,15,11,18,20.40
2017,09,15,11,19,20.20
2017,09,15,11,20,19.90
2017,09,15,11,21,19.70
2017,09,15,11,22,19.50
2017,09,15,11,23,19.50
2017,09,15,11,24,19.40
2017,09,15,11,25,19.30
2017,09,15,11,26,19.20
2017,09,15,11,27,19.20
2017,09,15,11,28,19.20
2017,09,15,11,29,19.30
2017,09,15,11,30,19.30
2017,09,15,11,31,19.30
2017,09,15,11,32,19.30
2017,09,15,11,33,19.40
2017,09,15,11,34,19.30
2017,09,15,11,35,19.10
2017,09,15,11,36,18.90
2017,09,15,11,37,18.70
2017,09,15,11,38,18.50
2017,09,15,11,39,18.40
2017,09,15,11,40,18.30
2017,09,15,11,41,18.40
2017,09,15,11,42,18.50
2017,09,15,11,43,18.50
2017,09,15,11,44,18.60
2017,09,15,11,45,18.70
2017,09,15,11,46,18.70
2017,09,15,11,47,18.80
2017,09,15,11,48,18.80
2017,09,15,11,49,18.80
2017,09,15,11,50,18.60
2017,09,15,11,51,18.50
2017,09,15,11,52,18.30
2017,09,15,11,53,18.30
2017,09,15,11,54,18.30
2017,09,15,11,55,18.30
2017,09,15,11,56,18.40
2017,09,15,11,57,18.40
2017,09,15,11,58,18.50
2017,09,15,11,59,18.60
2017,09,15,12,00,18.60
2017,09,15,12,01,18.70
2017,09,15,12,02,18.70
2017,09,15,12,03,18.70
2017,09,15,12,04,18.70
2017,09,15,12,05,18.70
2017,09,15,12,06,18.60
2017,09,15,12,07,18.50
2017,09,15,12,08,18.40
2017,09,15,12,09,18.30
2017,09,15,12,10,18.20
2017,09,15,12,11,18.20
2017,09,15,12,12,18.20
2017,09,15,12,13,18.10
2017,09,15,12,14,18.10
2017,09,15,12,15,18.10
2017,09,15,12,16,18.10
2017,09,15,12,17,18.10
2017,09,15,12,18,18.20
2017,09,15,12,19,18.20
2017,09,15,12,20,18.20
2017,09,15,12,21,18.20
2017,09,15,12,22,18.20
2017,09,15,12,23,18.30
2017,09,15,12,24,18.30
2017,09,15,12,25,18.30
2017,09,15,12,26,18.20
2017,09,15,12,27,18.20
2017,09,15,12,28,18.20
2017,09,15,12,29,18.20
2017,09,15,12,30,18.30
2017,09,15,12,31,18.30
2017,09,15,12,32,18.30
2017,09,15,12,33,18.40
2017,09,15,12,34,18.50
2017,09,15,12,35,18.60
2017,09,15,12,36,18.70
2017,09,15,12,37,18.80
2017,09,15,12,38,18.90
2017,09,15,12,39,19.10
2017,09,15,12,40,19.20
2017,09,15,12,41,19.30
2017,09,15,12,42,19.40
2017,09,15,12,43,19.50
2017,09,15,12,44,19.60
2017,09,15,12,45,19.60
2017,09,15,12,46,19.70
2017,09,15,12,47,19.80
2017,09,15,12,48,19.80
2017,09,15,12,49,19.80
2017,09,15,12,50,19.90
2017,09,15,12,51,19.90
2017,09,15,12,52,20.00
2017,09,15,12,53,20.00
2017,09,15,12,54,20.00
2017,09,15,12,55,19.90
2017,09,15,12,56,19.70
2017,09,15,12,57,19.60
2017,09,15,12,58,19.50
2017,09,15,12,59,19.30
2017,09,15,13,00,19.20
2017,09,15,13,01,19.20
2017,09,15,13,02,19.20
2017,09,15,13,03,19.10
2017,09,15,13,04,19.00
2017,09,15,13,05,18.90
2017,09,15,13,06,18.90
2017,09,15,13,07,18.90
2017,09,15,13,08,18.90
2017,09,15,13,09,19.00
2017,09,15,13,10,19.10
2017,09,15,13,11,19.20
2017,09,15,13,12,19.30
2017,09,15,13,13,19.50
2017,09,15,13,14,19.60
2017,09,15,13,15,19.80
2017,09,15,13,16,19.90
2017,09,15,13,17,20.00
2017,09,15,13,18,20.10
2017,09,15,13,19,20.20
2017,09,15,13,20,20.20
2017,09,15,13,21,20.30
2017,09,15,13,22,20.30
2017,09,15,13,23,20.40
2017,09,15,13,24,20.50
2017,09,15,13,25,20.50
2017,09,15,13,26,20.60
2017,09,15,13,27,20.70
2017,09,15,13,28,20.70
2017,09,15,13,29,20.60
2017,09,15,13,30,20.60
2017,09,15,13,31,20.60
2017,09,15,13,32,20.70
2017,09,15,13,33,20.80
2017,09,15,13,34,20.80
2017,09,15,13,35,20.90
2017,09,15,13,36,21.00
2017,09,15,13,37,21.00
2017,09,15,13,38,21.10
2017,09,15,13,39,21.20
2017,09,15,13,40,21.20
2017,09,15,13,41,21.30
2017,09,15,13,42,21.30
2017,09,15,13,43,21.30
2017,09,15,13,44,21.30
2017,09,15,13,45,21.40
2017,09,15,13,46,21.40
2017,09,15,13,47,21.50
2017,09,15,13,48,21.70
2017,09,15,13,49,21.80
2017,09,15,13,50,21.90
2017,09,15,13,51,22.00
2017,09,15,13,52,22.00
2017,09,15,13,53,22.10
2017,09,15,13,54,22.10
2017,09,15,13,55,22.10
2017,09,15,13,56,22.20
2017,09,15,13,57,22.30
2017,09,15,13,58,22.30
2017,09,15,13,59,22.30
2017,09,15,14,00,22.20
2017,09,15,14,01,22.10
2017,09,15,14,02,21.80
2017,09,15,14,03,21.70
2017,09,15,14,04,21.50
2017,09,15,14,05,21.50
2017,09,15,14,06,21.40
2017,09,15,14,07,21.30
2017,09,15,14,08,21.30
2017,09,15,14,09,21.40
2017,09,15,14,10,21.50
2017,09,15,14,11,21.70
2017,09,15,14,12,21.90
2017,09,15,14,13,22.00
2017,09,15,14,14,22.10
2017,09,15,14,15,22.20
2017,09,15,14,16,22.30
2017,09,15,14,17,22.30
2017,09,15,14,18,22.40
2017,09,15,14,19,22.50
2017,09,15,14,20,22.50
2017,09,15,14,21,22.70
2017,09,15,14,22,22.70
2017,09,15,14,23,22.70
2017,09,15,14,24,22.70
2017,09,15,14,25,22.70
2017,09,15,14,26,22.70
2017,09,15,14,27,22.80
2017,09,15,14,28,22.80
2017,09,15,14,29,22.90
2017,09,15,14,30,22.90
2017,09,15,14,31,22.90
2017,09,15,14,32,22.90
2017,09,15,14,33,22.90
2017,09,15,14,34,23.00
2017,09,15,14,35,23.10
2017,09,15,14,36,23.00
2017,09,15,14,37,22.90
2017,09,15,14,38,22.80
2017,09,15,14,39,22.70
2017,09,15,14,40,22.70
2017,09,15,14,41,22.60
2017,09,15,14,42,22.50
2017,09,15,14,43,22.40
2017,09,15,14,44,22.30
2017,09,15,14,45,22.10
2017,09,15,14,46,22.00
2017,09,15,14,47,22.00
2017,09,15,14,48,22.00
2017,09,15,14,49,21.90
2017,09,15,14,50,21.90
2017,09,15,14,51,21.90
2017,09,15,14,52,21.90
2017,09,15,14,53,22.00
2017,09,15,14,54,22.00
2017,09,15,14,55,22.10
2017,09,15,14,56,22.20
2017,09,15,14,57,22.40
2017,09,15,14,58,22.50
2017,09,15,14,59,22.60
2017,09,15,15,00,22.80
2017,09,15,15,01,22.90
2017,09,15,15,02,23.00
2017,09,15,15,03,23.10
2017,09,15,15,04,23.20
2017,09,15,15,05,23.20
2017,09,15,15,06,23.30
2017,09,15,15,07,23.40
2017,09,15,15,08,23.40
2017,09,15,15,09,23.50
2017,09,15,15,10,23.50
2017,09,15,15,11,23.60
2017,09,15,15,12,23.60
2017,09,15,15,13,23.60
2017,09,15,15,14,23.60
2017,09,15,15,15,23.60
2017,09,15,15,16,23.70
2017,09,15,15,17,23.70
2017,09,15,15,18,23.70
2017,09,15,15,19,23.70
2017,09,15,15,20,23.70
2017,09,15,15,21,23.70
2017,09,15,15,22,23.80
2017,09,15,15,23,23.80
2017,09,15,15,24,23.80
2017,09,15,15,25,23.90
2017,09,15,15,26,24.00
2017,09,15,15,27,24.00
2017,09,15,15,28,24.10
2017,09,15,15,29,24.10
2017,09,15,15,30,24.10
2017,09,15,15,31,24.10
2017,09,15,15,32,24.00
2017,09,15,15,33,24.00
2017,09,15,15,34,24.10
2017,09,15,15,35,24.10
2017,09,15,15,36,24.10
2017,09,15,15,37,24.10
2017,09,15,15,38,24.10
2017,09,15,15,39,24.00
2017,09,15,15,40,23.70
2017,09,15,15,41,23.50
2017,09,15,15,42,23.40
2017,09,15,15,43,23.30
2017,09,15,15,44,23.30
2017,09,15,15,45,23.30
2017,09,15,15,46,23.20
2017,09,15,15,47,23.20
2017,09,15,15,48,23.00
2017,09,15,15,49,22.80
2017,09,15,15,50,22.60
2017,09,15,15,51,22.50
2017,09,15,15,52,22.40
2017,09,15,15,53,22.30
2017,09,15,15,54,22.20
2017,09,15,15,55,22.10
2017,09,15,15,56,22.10
2017,09,15,15,57,22.00
2017,09,15,15,58,21.90
2017,09,15,15,59,21.80
2017,09,15,16,00,21.70
2017,09,15,16,01,21.60
2017,09,15,16,02,21.60
2017,09,15,16,03,21.60
2017,09,15,16,04,21.60
2017,09,15,16,05,21.70
2017,09,15,16,06,21.70
2017,09,15,16,07,21.80
2017,09,15,16,08,21.70
2017,09,15,16,09,21.70
2017,09,15,16,10,21.70
2017,09,15,16,11,21.70
2017,09,15,16,12,21.70
2017,09,15,16,13,21.60
2017,09,15,16,14,21.60
2017,09,15,16,15,21.60
2017,09,15,16,16,21.60
2017,09,15,16,17,21.50
2017,09,15,16,18,21.50
2017,09,15,16,19,21.40
2017,09,15,16,20,21.40
2017,09,15,16,21,21.30
2017,09,15,16,22,21.20
2017,09,15,16,23,21.10
2017,09,15,16,24,21.00
2017,09,15,16,25,21.00
2017,09,15,16,26,21.00
2017,09,15,16,27,21.00
2017,09,15,16,28,21.00
2017,09,15,16,29,21.10
2017,09,15,16,30,21.00
2017,09,15,16,31,21.00
2017,09,15,16,32,21.00
2017,09,15,16,33,20.90
2017,09,15,16,34,20.80
2017,09,15,16,35,20.80
2017,09,15,16,36,20.70
2017,09,15,16,37,20.70
2017,09,15,16,38,20.60
2017,09,15,16,39,20.60
2017,09,15,16,40,20.50
2017,09,15,16,41,20.50
2017,09,15,16,42,20.50
2017,09,15,16,43,20.60
2017,09,15,16,44,20.60
2017,09,15,16,45,20.70
2017,09,15,16,46,20.80
2017,09,15,16,47,20.80
2017,09,15,16,48,20.70
2017,09,15,16,49,20.70
2017,09,15,16,50,20.70
2017,09,15,16,51,20.70
2017,09,15,16,52,20.80
2017,09,15,16,53,20.80
2017,09,15,16,54,20.90
2017,09,15,16,55,20.90
2017,09,15,16,56,20.90
2017,09,15,16,57,20.90
2017,09,15,16,58,20.80
2017,09,15,16,59,20.80
2017,09,15,17,00,20.80
2017,09,15,17,01,20.80
2017,09,15,17,02,20.90
2017,09,15,17,03,20.90
2017,09,15,17,04,21.00
2017,09,15,17,05,21.10
2017,09,15,17,06,21.10
2017,09,15,17,07,21.20
2017,09,15,17,08,21.20
2017,09,15,17,09,21.20
2017,09,15,17,10,21.20
2017,09,15,17,11,21.20
2017,09,15,17,12,21.20
2017,09,15,17,13,21.20
2017,09,15,17,14,21.20
2017,09,15,17,15,21.30
2017,09,15,17,16,21.30
2017,09,15,17,17,21.30
2017,09,15,17,18,21.40
2017,09,15,17,19,21.40
2017,09,15,17,20,21.40
2017,09,15,17,21,21.50
2017,09,15,17,22,21.50
2017,09,15,17,23,21.60
2017,09,15,17,24,21.60
2017,09,15,17,25,21.60
2017,09,15,17,26,21.60
2017,09,15,17,27,21.60
2017,09,15,17,28,21.50
2017,09,15,17,29,21.50
2017,09,15,17,30,21.50
2017,09,15,17,31,21.50
2017,09,15,17,32,21.40
2017,09,15,17,33,21.40